Year,Month,Day,Hour,Minute,Value (Times are PST for windgust in km/hr)
2022,05,18,00,33,1.60
2022,05,18,00,34,3.20
2022,05,18,00,35,3.20
2022,05,18,00,36,1.60
2022,05,18,00,40,1.60
2022,05,18,00,41,1.60
2022,05,18,01,08,1.60
2022,05,18,01,09,3.20
2022,05,18,01,10,3.20
2022,05,18,01,11,3.20
2022,05,18,01,12,3.20
2022,05,18,01,13,1.60
2022,05,18,01,14,3.20
2022,05,18,01,15,3.20
2022,05,18,01,16,1.60
2022,05,18,01,31,3.20
2022,05,18,01,32,3.20
2022,05,18,01,33,6.40
2022,05,18,01,34,6.40
2022,05,18,01,35,6.40
2022,05,18,01,36,6.40
2022,05,18,01,37,3.20
2022,05,18,01,38,3.20
2022,05,18,01,41,3.20
2022,05,18,01,42,1.60
2022,05,18,01,43,3.20
2022,05,18,01,44,1.60
2022,05,18,01,45,3.20
2022,05,18,01,46,3.20
2022,05,18,01,47,3.20
2022,05,18,01,48,3.20
2022,05,18,01,49,6.40
2022,05,18,01,50,3.20
2022,05,18,01,51,3.20
2022,05,18,01,52,3.20
2022,05,18,01,53,3.20
2022,05,18,01,54,3.20
2022,05,18,01,55,1.60
2022,05,18,01,56,3.20
2022,05,18,02,02,1.60
2022,05,18,02,03,1.60
2022,05,18,02,09,3.20
2022,05,18,02,10,1.60
2022,05,18,02,15,1.60
2022,05,18,02,16,3.20
2022,05,18,02,17,3.20
2022,05,18,02,18,1.60
2022,05,18,02,19,3.20
2022,05,18,02,20,3.20
2022,05,18,02,26,1.60
2022,05,18,02,35,1.60
2022,05,18,02,36,3.20
2022,05,18,02,37,1.60
2022,05,18,02,38,1.60
2022,05,18,02,41,1.60
2022,05,18,02,42,3.20
2022,05,18,02,43,6.40
2022,05,18,02,44,3.20
2022,05,18,02,45,3.20
2022,05,18,02,46,3.20
2022,05,18,02,47,3.20
2022,05,18,02,48,3.20
2022,05,18,02,49,1.60
2022,05,18,02,55,3.20
2022,05,18,02,56,3.20
2022,05,18,02,57,3.20
2022,05,18,02,58,3.20
2022,05,18,02,59,3.20
2022,05,18,03,00,8.10
2022,05,18,03,01,3.20
2022,05,18,03,02,3.20
2022,05,18,03,03,3.20
2022,05,18,03,04,3.20
2022,05,18,03,05,3.20
2022,05,18,03,06,3.20
2022,05,18,03,08,1.60
2022,05,18,03,09,1.60
2022,05,18,03,10,6.40
2022,05,18,03,11,6.40
2022,05,18,03,12,3.20
2022,05,18,03,13,1.60
2022,05,18,03,14,1.60
2022,05,18,03,15,6.40
2022,05,18,03,16,9.60
2022,05,18,03,17,3.20
2022,05,18,03,18,1.60
2022,05,18,03,19,3.20
2022,05,18,03,20,8.10
2022,05,18,03,21,3.20
2022,05,18,03,22,1.60
2022,05,18,03,23,3.20
2022,05,18,03,24,1.60
2022,05,18,03,25,6.40
2022,05,18,03,26,6.40
2022,05,18,03,27,6.40
2022,05,18,03,28,1.60
2022,05,18,03,34,1.60
2022,05,18,03,35,3.20
2022,05,18,03,36,3.20
2022,05,18,03,37,3.20
2022,05,18,03,38,6.40
2022,05,18,03,39,6.40
2022,05,18,03,40,3.20
2022,05,18,03,41,1.60
2022,05,18,03,42,1.60
2022,05,18,03,43,3.20
2022,05,18,03,44,6.40
2022,05,18,03,45,6.40
2022,05,18,03,47,1.60
2022,05,18,03,48,3.20
2022,05,18,03,49,1.60
2022,05,18,03,50,1.60
2022,05,18,03,51,6.40
2022,05,18,03,52,8.10
2022,05,18,03,53,3.20
2022,05,18,03,54,1.60
2022,05,18,03,55,3.20
2022,05,18,03,56,1.60
2022,05,18,03,57,3.20
2022,05,18,03,58,3.20
2022,05,18,04,00,1.60
2022,05,18,04,01,3.20
2022,05,18,04,02,6.40
2022,05,18,04,03,6.40
2022,05,18,04,04,6.40
2022,05,18,04,05,3.20
2022,05,18,04,06,6.40
2022,05,18,04,07,9.60
2022,05,18,04,08,8.10
2022,05,18,04,09,9.60
2022,05,18,04,10,3.20
2022,05,18,04,11,9.60
2022,05,18,04,12,3.20
2022,05,18,04,14,1.60
2022,05,18,04,15,3.20
2022,05,18,04,16,6.40
2022,05,18,04,17,8.10
2022,05,18,04,18,8.10
2022,05,18,04,19,6.40
2022,05,18,04,20,6.40
2022,05,18,04,21,8.10
2022,05,18,04,22,3.20
2022,05,18,04,23,8.10
2022,05,18,04,24,6.40
2022,05,18,04,27,9.60
2022,05,18,04,28,6.40
2022,05,18,04,29,3.20
2022,05,18,04,30,6.40
2022,05,18,04,31,8.10
2022,05,18,04,32,6.40
2022,05,18,04,33,3.20
2022,05,18,04,38,1.60
2022,05,18,04,39,3.20
2022,05,18,04,40,6.40
2022,05,18,04,41,6.40
2022,05,18,04,42,9.60
2022,05,18,04,43,6.40
2022,05,18,04,44,3.20
2022,05,18,04,45,6.40
2022,05,18,04,46,6.40
2022,05,18,04,47,3.20
2022,05,18,04,48,3.20
2022,05,18,04,49,3.20
2022,05,18,04,54,3.20
2022,05,18,04,55,3.20
2022,05,18,04,56,1.60
2022,05,18,04,58,6.40
2022,05,18,04,59,3.20
2022,05,18,05,01,4.80
2022,05,18,05,02,4.80
2022,05,18,05,03,3.20
2022,05,18,05,04,3.20
2022,05,18,05,05,4.80
2022,05,18,05,06,3.20
2022,05,18,05,07,1.60
2022,05,18,05,14,1.60
2022,05,18,05,16,1.60
2022,05,18,05,22,3.20
2022,05,18,05,23,4.80
2022,05,18,05,24,3.20
2022,05,18,05,25,1.60
2022,05,18,05,27,3.20
2022,05,18,05,31,3.20
2022,05,18,05,32,1.60
2022,05,18,05,37,3.20
2022,05,18,05,38,6.40
2022,05,18,05,39,8.10
2022,05,18,05,40,8.10
2022,05,18,05,41,6.40
2022,05,18,05,42,6.40
2022,05,18,05,43,8.10
2022,05,18,05,44,4.80
2022,05,18,05,45,3.20
2022,05,18,05,47,4.80
2022,05,18,05,48,9.60
2022,05,18,05,49,4.80
2022,05,18,05,50,6.40
2022,05,18,05,51,6.40
2022,05,18,05,52,3.20
2022,05,18,05,53,3.20
2022,05,18,05,55,1.60
2022,05,18,05,56,1.60
2022,05,18,05,57,3.20
2022,05,18,05,58,3.20
2022,05,18,05,59,6.40
2022,05,18,06,00,6.40
2022,05,18,06,01,1.60
2022,05,18,06,04,4.80
2022,05,18,06,05,8.10
2022,05,18,06,06,3.20
2022,05,18,06,07,1.60
2022,05,18,06,08,3.20
2022,05,18,06,09,6.40
2022,05,18,06,11,8.10
2022,05,18,06,12,9.60
2022,05,18,06,13,3.20
2022,05,18,06,14,12.90
2022,05,18,06,15,9.60
2022,05,18,06,16,3.20
2022,05,18,06,17,3.20
2022,05,18,06,18,6.40
2022,05,18,06,19,3.20
2022,05,18,06,20,3.20
2022,05,18,06,21,4.80
2022,05,18,06,22,6.40
2022,05,18,06,23,4.80
2022,05,18,06,24,4.80
2022,05,18,06,25,9.60
2022,05,18,06,26,8.10
2022,05,18,06,27,6.40
2022,05,18,06,28,6.40
2022,05,18,06,29,3.20
2022,05,18,06,30,6.40
2022,05,18,06,31,8.10
2022,05,18,06,32,4.80
2022,05,18,06,33,4.80
2022,05,18,06,34,6.40
2022,05,18,06,35,3.20
2022,05,18,06,36,4.80
2022,05,18,06,37,1.60
2022,05,18,06,38,1.60
2022,05,18,06,39,4.80
2022,05,18,06,40,3.20
2022,05,18,06,41,4.80
2022,05,18,06,42,6.40
2022,05,18,06,43,4.80
2022,05,18,06,44,4.80
2022,05,18,06,45,8.10
2022,05,18,06,46,4.80
2022,05,18,06,47,6.40
2022,05,18,06,48,4.80
2022,05,18,06,49,4.80
2022,05,18,06,50,8.10
2022,05,18,06,51,6.40
2022,05,18,06,52,8.10
2022,05,18,06,53,6.40
2022,05,18,06,54,1.60
2022,05,18,06,55,8.10
2022,05,18,06,56,6.40
2022,05,18,06,57,8.10
2022,05,18,06,58,6.40
2022,05,18,06,59,9.60
2022,05,18,07,00,9.60
2022,05,18,07,01,6.40
2022,05,18,07,02,12.90
2022,05,18,07,03,12.90
2022,05,18,07,04,19.30
2022,05,18,07,05,12.90
2022,05,18,07,06,6.40
2022,05,18,07,07,11.30
2022,05,18,07,08,9.60
2022,05,18,07,09,6.40
2022,05,18,07,10,11.30
2022,05,18,07,11,11.30
2022,05,18,07,12,9.60
2022,05,18,07,13,6.40
2022,05,18,07,14,11.30
2022,05,18,07,15,9.60
2022,05,18,07,16,12.90
2022,05,18,07,17,9.60
2022,05,18,07,18,4.80
2022,05,18,07,19,8.10
2022,05,18,07,20,8.10
2022,05,18,07,21,11.30
2022,05,18,07,22,8.10
2022,05,18,07,23,6.40
2022,05,18,07,24,9.60
2022,05,18,07,25,12.90
2022,05,18,07,26,9.60
2022,05,18,07,27,6.40
2022,05,18,07,28,12.90
2022,05,18,07,29,20.90
2022,05,18,07,30,11.30
2022,05,18,07,31,4.80
2022,05,18,07,32,11.30
2022,05,18,07,33,9.60
2022,05,18,07,34,17.70
2022,05,18,07,35,8.10
2022,05,18,07,36,9.60
2022,05,18,07,37,8.10
2022,05,18,07,38,11.30
2022,05,18,07,39,4.80
2022,05,18,07,40,4.80
2022,05,18,07,41,6.40
2022,05,18,07,42,8.10
2022,05,18,07,43,6.40
2022,05,18,07,44,6.40
2022,05,18,07,45,1.60
2022,05,18,07,46,4.80
2022,05,18,07,47,3.20
2022,05,18,07,48,6.40
2022,05,18,07,49,6.40
2022,05,18,07,50,3.20
2022,05,18,07,53,1.60
2022,05,18,07,54,1.60
2022,05,18,07,55,6.40
2022,05,18,07,56,4.80
2022,05,18,07,57,4.80
2022,05,18,07,58,6.40
2022,05,18,07,59,6.40
2022,05,18,08,00,12.90
2022,05,18,08,01,14.50
2022,05,18,08,02,4.80
2022,05,18,08,03,11.30
2022,05,18,08,04,8.10
2022,05,18,08,05,9.60
2022,05,18,08,06,8.10
2022,05,18,08,07,17.70
2022,05,18,08,08,12.90
2022,05,18,08,09,12.90
2022,05,18,08,10,19.30
2022,05,18,08,11,20.90
2022,05,18,08,12,17.70
2022,05,18,08,13,12.90
2022,05,18,08,14,11.30
2022,05,18,08,15,24.20
2022,05,18,08,16,22.50
2022,05,18,08,17,6.40
2022,05,18,08,18,17.70
2022,05,18,08,19,12.90
2022,05,18,08,20,11.30
2022,05,18,08,21,8.10
2022,05,18,08,22,8.10
2022,05,18,08,23,12.90
2022,05,18,08,24,8.10
2022,05,18,08,25,8.10
2022,05,18,08,26,9.60
2022,05,18,08,27,4.80
2022,05,18,08,28,9.60
2022,05,18,08,29,16.10
2022,05,18,08,30,11.30
2022,05,18,08,31,24.20
2022,05,18,08,32,11.30
2022,05,18,08,33,11.30
2022,05,18,08,34,11.30
2022,05,18,08,35,9.60
2022,05,18,08,36,8.10
2022,05,18,08,37,14.50
2022,05,18,08,38,14.50
2022,05,18,08,39,14.50
2022,05,18,08,40,14.50
2022,05,18,08,41,33.80
2022,05,18,08,42,24.20
2022,05,18,08,43,14.50
2022,05,18,08,44,12.90
2022,05,18,08,45,20.90
2022,05,18,08,46,12.90
2022,05,18,08,47,20.90
2022,05,18,08,48,24.20
2022,05,18,08,49,14.50
2022,05,18,08,50,22.50
2022,05,18,08,51,22.50
2022,05,18,08,52,17.70
2022,05,18,08,53,20.90
2022,05,18,08,54,17.70
2022,05,18,08,55,17.70
2022,05,18,08,56,19.30
2022,05,18,08,57,29.00
2022,05,18,08,58,27.40
2022,05,18,08,59,20.90
2022,05,18,09,00,19.30
2022,05,18,09,01,24.20
2022,05,18,09,02,27.40
2022,05,18,09,03,11.30
2022,05,18,09,04,19.30
2022,05,18,09,05,17.70
2022,05,18,09,06,11.30
2022,05,18,09,07,8.10
2022,05,18,09,08,19.30
2022,05,18,09,09,25.70
2022,05,18,09,10,25.70
2022,05,18,09,11,19.30
2022,05,18,09,12,17.70
2022,05,18,09,13,29.00
2022,05,18,09,14,35.40
2022,05,18,09,15,30.60
2022,05,18,09,16,16.10
2022,05,18,09,17,22.50
2022,05,18,09,18,24.20
2022,05,18,09,19,25.70
2022,05,18,09,20,25.70
2022,05,18,09,21,22.50
2022,05,18,09,22,17.70
2022,05,18,09,23,9.60
2022,05,18,09,24,33.80
2022,05,18,09,25,9.60
2022,05,18,09,26,12.90
2022,05,18,09,27,14.50
2022,05,18,09,28,29.00
2022,05,18,09,29,24.20
2022,05,18,09,30,27.40
2022,05,18,09,31,16.10
2022,05,18,09,32,14.50
2022,05,18,09,33,11.30
2022,05,18,09,34,22.50
2022,05,18,09,35,22.50
2022,05,18,09,36,14.50
2022,05,18,09,37,24.20
2022,05,18,09,38,19.30
2022,05,18,09,39,38.60
2022,05,18,09,40,22.50
2022,05,18,09,41,22.50
2022,05,18,09,42,30.60
2022,05,18,09,43,12.90
2022,05,18,09,44,32.20
2022,05,18,09,45,20.90
2022,05,18,09,46,22.50
2022,05,18,09,47,33.80
2022,05,18,09,48,20.90
2022,05,18,09,49,20.90
2022,05,18,09,50,16.10
2022,05,18,09,51,19.30
2022,05,18,09,52,20.90
2022,05,18,09,53,27.40
2022,05,18,09,54,37.00
2022,05,18,09,55,30.60
2022,05,18,09,56,33.80
2022,05,18,09,57,32.20
2022,05,18,09,58,20.90
2022,05,18,09,59,27.40
2022,05,18,10,00,24.20
2022,05,18,10,01,51.50
2022,05,18,10,02,29.00
2022,05,18,10,03,29.00
2022,05,18,10,04,30.60
2022,05,18,10,05,20.90
2022,05,18,10,06,38.60
2022,05,18,10,07,35.40
2022,05,18,10,08,27.40
2022,05,18,10,09,19.30
2022,05,18,10,10,29.00
2022,05,18,10,11,35.40
2022,05,18,10,12,37.00
2022,05,18,10,13,30.60
2022,05,18,10,14,16.10
2022,05,18,10,15,35.40
2022,05,18,10,16,49.90
2022,05,18,14,01,14.50
2022,05,18,14,02,4.80
2022,05,18,14,03,17.70
2022,05,18,14,04,20.90
2022,05,18,14,05,32.20
2022,05,18,14,06,25.70
2022,05,18,14,07,11.30
2022,05,18,14,08,9.60
2022,05,18,14,09,27.40
2022,05,18,14,10,30.60
2022,05,18,14,11,9.60
2022,05,18,14,12,11.30
2022,05,18,14,13,14.50
2022,05,18,14,14,35.40
2022,05,18,14,15,25.70
2022,05,18,14,16,16.10
2022,05,18,14,17,11.30
2022,05,18,14,18,12.90
2022,05,18,14,19,8.10
2022,05,18,14,20,8.10
2022,05,18,14,21,11.30
2022,05,18,14,22,6.40
2022,05,18,14,23,11.30
2022,05,18,14,24,11.30
2022,05,18,14,25,27.40
2022,05,18,14,26,35.40
2022,05,18,14,27,22.50
2022,05,18,14,28,32.20
2022,05,18,14,29,16.10
2022,05,18,14,30,12.90
2022,05,18,14,31,14.50
2022,05,18,14,32,19.30
2022,05,18,14,33,11.30
2022,05,18,14,34,12.90
2022,05,18,14,35,17.70
2022,05,18,14,36,11.30
2022,05,18,14,37,29.00
2022,05,18,14,38,17.70
2022,05,18,14,39,16.10
2022,05,18,14,40,14.50
2022,05,18,14,41,29.00
2022,05,18,14,42,25.70
2022,05,18,14,43,19.30
2022,05,18,14,44,14.50
2022,05,18,14,45,27.40
2022,05,18,14,46,20.90
2022,05,18,14,47,30.60
2022,05,18,14,48,24.20
2022,05,18,14,49,25.70
2022,05,18,14,50,29.00
2022,05,18,14,51,32.20
2022,05,18,14,52,19.30
2022,05,18,14,53,17.70
2022,05,18,14,54,20.90
2022,05,18,14,55,17.70
2022,05,18,14,56,12.90
2022,05,18,14,57,9.60
2022,05,18,14,58,32.20
2022,05,18,14,59,29.00
2022,05,18,15,00,24.20
2022,05,18,15,01,19.30
2022,05,18,15,02,12.90
2022,05,18,15,03,14.50
2022,05,18,15,04,20.90
2022,05,18,15,05,17.70
2022,05,18,15,06,17.70
2022,05,18,15,07,14.50
2022,05,18,15,08,33.80
2022,05,18,15,09,25.70
2022,05,18,15,10,12.90
2022,05,18,15,11,14.50
2022,05,18,15,12,22.50
2022,05,18,15,13,24.20
2022,05,18,15,14,27.40
2022,05,18,15,15,22.50
2022,05,18,15,16,32.20
2022,05,18,15,17,33.80
2022,05,18,15,18,20.90
2022,05,18,15,19,20.90
2022,05,18,15,20,16.10
2022,05,18,15,21,19.30
2022,05,18,15,22,29.00
2022,05,18,15,23,24.20
2022,05,18,15,24,37.00
2022,05,18,15,25,14.50
2022,05,18,15,26,16.10
2022,05,18,15,27,14.50
2022,05,18,15,28,22.50
2022,05,18,15,29,14.50
2022,05,18,15,30,29.00
2022,05,18,15,31,30.60
2022,05,18,15,32,12.90
2022,05,18,15,33,17.70
2022,05,18,15,34,12.90
2022,05,18,15,35,11.30
2022,05,18,15,36,11.30
2022,05,18,15,37,20.90
2022,05,18,15,38,20.90
2022,05,18,15,39,22.50
2022,05,18,15,40,19.30
2022,05,18,15,41,20.90
2022,05,18,15,42,33.80
2022,05,18,15,43,17.70
2022,05,18,15,44,25.70
2022,05,18,15,45,24.20
2022,05,18,15,46,27.40
2022,05,18,15,47,22.50
2022,05,18,15,48,25.70
2022,05,18,15,49,22.50
2022,05,18,15,50,29.00
2022,05,18,15,51,22.50
2022,05,18,15,52,17.70
2022,05,18,15,53,20.90
2022,05,18,15,54,24.20
2022,05,18,15,55,20.90
2022,05,18,15,56,16.10
2022,05,18,15,57,22.50
2022,05,18,15,58,16.10
2022,05,18,15,59,16.10
2022,05,18,16,00,22.50
2022,05,18,16,01,27.40
2022,05,18,16,02,32.20
2022,05,18,16,03,17.70
2022,05,18,16,04,20.90
2022,05,18,16,05,17.70
2022,05,18,16,06,19.30
2022,05,18,16,07,32.20
2022,05,18,16,08,27.40
2022,05,18,16,09,33.80
2022,05,18,16,10,30.60
2022,05,18,16,11,27.40
2022,05,18,16,12,24.20
2022,05,18,16,13,30.60
2022,05,18,16,14,30.60
2022,05,18,16,15,37.00
2022,05,18,16,16,35.40
2022,05,18,16,17,24.20
2022,05,18,16,18,37.00
2022,05,18,16,19,29.00
2022,05,18,16,20,22.50
2022,05,18,16,21,30.60
2022,05,18,16,22,43.50
2022,05,18,16,23,25.70
2022,05,18,16,24,38.60
2022,05,18,16,25,27.40
2022,05,18,16,26,29.00
2022,05,18,16,27,37.00
2022,05,18,16,28,20.90
2022,05,18,16,29,45.10
2022,05,18,16,30,20.90
2022,05,18,16,31,27.40
2022,05,18,16,32,24.20
2022,05,18,16,33,35.40
2022,05,18,16,34,20.90
2022,05,18,16,35,29.00
2022,05,18,16,36,27.40
2022,05,18,16,37,19.30
2022,05,18,16,38,19.30
2022,05,18,16,39,22.50
2022,05,18,16,40,22.50
2022,05,18,16,41,20.90
2022,05,18,16,42,14.50
2022,05,18,16,43,12.90
2022,05,18,16,44,30.60
2022,05,18,16,45,16.10
2022,05,18,16,46,12.90
2022,05,18,16,47,11.30
2022,05,18,16,48,25.70
2022,05,18,16,49,14.50
2022,05,18,16,50,9.60
2022,05,18,16,51,17.70
2022,05,18,16,52,8.10
2022,05,18,16,53,17.70
2022,05,18,16,54,11.30
2022,05,18,16,55,16.10
2022,05,18,16,56,12.90
2022,05,18,16,57,14.50
2022,05,18,16,58,29.00
2022,05,18,16,59,25.70
2022,05,18,17,00,19.30
2022,05,18,17,01,27.40
2022,05,18,17,02,12.90
2022,05,18,17,03,20.90
2022,05,18,17,04,9.60
2022,05,18,17,05,30.60
2022,05,18,17,06,9.60
2022,05,18,17,07,8.10
2022,05,18,17,08,14.50
2022,05,18,17,09,14.50
2022,05,18,17,10,9.60
2022,05,18,17,11,6.40
2022,05,18,17,12,8.10
2022,05,18,17,13,12.90
2022,05,18,17,14,25.70
2022,05,18,17,15,11.30
2022,05,18,17,16,9.60
2022,05,18,17,17,4.80
2022,05,18,17,18,6.40
2022,05,18,17,19,6.40
2022,05,18,17,20,9.60
2022,05,18,17,21,9.60
2022,05,18,17,22,6.40
2022,05,18,17,23,12.90
2022,05,18,17,24,9.60
2022,05,18,17,25,20.90
2022,05,18,17,26,17.70
2022,05,18,17,27,6.40
2022,05,18,17,28,11.30
2022,05,18,17,29,11.30
2022,05,18,17,30,9.60
2022,05,18,17,31,4.80
2022,05,18,17,32,4.80
2022,05,18,17,33,3.20
2022,05,18,17,34,14.50
2022,05,18,17,35,12.90
2022,05,18,17,36,17.70
2022,05,18,17,37,20.90
2022,05,18,17,38,19.30
2022,05,18,17,39,9.60
2022,05,18,17,40,19.30
2022,05,18,17,41,30.60
2022,05,18,17,42,8.10
2022,05,18,17,43,9.60
2022,05,18,17,44,6.40
2022,05,18,17,45,12.90
2022,05,18,17,46,6.40
2022,05,18,17,47,16.10
2022,05,18,17,48,14.50
2022,05,18,17,49,12.90
2022,05,18,17,50,16.10
2022,05,18,17,51,11.30
2022,05,18,17,52,16.10
2022,05,18,17,53,20.90
2022,05,18,17,54,22.50
2022,05,18,17,55,20.90
2022,05,18,17,56,24.20
2022,05,18,17,57,29.00
2022,05,18,17,58,14.50
2022,05,18,17,59,6.40
2022,05,18,18,00,8.10
2022,05,18,18,01,20.90
2022,05,18,18,02,17.70
2022,05,18,18,03,22.50
2022,05,18,18,04,14.50
2022,05,18,18,05,9.60
2022,05,18,18,06,8.10
2022,05,18,18,07,14.50
2022,05,18,18,08,24.20
2022,05,18,18,09,11.30
2022,05,18,18,10,12.90
2022,05,18,18,11,16.10
2022,05,18,18,12,6.40
2022,05,18,18,13,11.30
2022,05,18,18,14,8.10
2022,05,18,18,15,9.60
2022,05,18,18,16,12.90
2022,05,18,18,17,16.10
2022,05,18,18,18,6.40
2022,05,18,18,19,4.80
2022,05,18,18,20,17.70
2022,05,18,18,21,8.10
2022,05,18,18,22,9.60
2022,05,18,18,23,22.50
2022,05,18,18,24,14.50
2022,05,18,18,25,9.60
2022,05,18,18,26,9.60
2022,05,18,18,27,8.10
2022,05,18,18,28,8.10
2022,05,18,18,29,14.50
2022,05,18,18,30,8.10
2022,05,18,18,31,12.90
2022,05,18,18,32,19.30
2022,05,18,18,33,16.10
2022,05,18,18,34,6.40
2022,05,18,18,35,11.30
2022,05,18,18,36,12.90
2022,05,18,18,37,25.70
2022,05,18,18,38,19.30
2022,05,18,18,39,12.90
2022,05,18,18,40,29.00
2022,05,18,18,41,12.90
2022,05,18,18,42,11.30
2022,05,18,18,43,11.30
2022,05,18,18,44,19.30
2022,05,18,18,45,12.90
2022,05,18,18,46,16.10
2022,05,18,18,47,12.90
2022,05,18,18,48,9.60
2022,05,18,18,49,9.60
2022,05,18,18,50,8.10
2022,05,18,18,51,16.10
2022,05,18,18,52,20.90
2022,05,18,18,53,6.40
2022,05,18,18,54,8.10
2022,05,18,18,55,17.70
2022,05,18,18,56,17.70
2022,05,18,18,57,17.70
2022,05,18,18,58,22.50
2022,05,18,18,59,12.90
2022,05,18,19,00,16.10
2022,05,18,19,01,12.90
2022,05,18,19,02,16.10
2022,05,18,19,03,19.30
2022,05,18,19,04,20.90
2022,05,18,19,05,14.50
2022,05,18,19,06,12.90
2022,05,18,19,07,17.70
2022,05,18,19,08,19.30
2022,05,18,19,09,16.10
2022,05,18,19,10,27.40
2022,05,18,19,11,8.10
2022,05,18,19,12,11.30
2022,05,18,19,13,16.10
2022,05,18,19,14,11.30
2022,05,18,19,15,8.10
2022,05,18,19,16,8.10
2022,05,18,19,17,8.10
2022,05,18,19,18,12.90
2022,05,18,19,19,11.30
2022,05,18,19,20,14.50
2022,05,18,19,21,20.90
2022,05,18,19,22,17.70
2022,05,18,19,23,17.70
2022,05,18,19,24,22.50
2022,05,18,19,25,17.70
2022,05,18,19,26,22.50
2022,05,18,19,27,24.20
2022,05,18,19,28,16.10
2022,05,18,19,29,22.50
2022,05,18,19,30,29.00
2022,05,18,19,31,14.50
2022,05,18,19,32,20.90
2022,05,18,19,33,22.50
2022,05,18,19,34,8.10
2022,05,18,19,35,8.10
2022,05,18,19,36,16.10
2022,05,18,19,37,16.10
2022,05,18,19,38,19.30
2022,05,18,19,39,30.60
2022,05,18,19,40,11.30
2022,05,18,19,41,14.50
2022,05,18,19,42,16.10
2022,05,18,19,43,11.30
2022,05,18,19,44,12.90
2022,05,18,19,45,8.10
2022,05,18,19,46,4.80
2022,05,18,19,47,12.90
2022,05,18,19,48,16.10
2022,05,18,19,49,12.90
2022,05,18,19,50,12.90
2022,05,18,19,51,11.30
2022,05,18,19,52,17.70
2022,05,18,19,53,33.80
2022,05,18,19,54,14.50
2022,05,18,19,55,14.50
2022,05,18,19,56,11.30
2022,05,18,19,57,8.10
2022,05,18,19,58,12.90
2022,05,18,19,59,12.90
2022,05,18,20,00,8.10
2022,05,18,20,01,12.90
2022,05,18,20,02,25.70
2022,05,18,20,03,33.80
2022,05,18,20,04,17.70
2022,05,18,20,05,17.70
2022,05,18,20,06,17.70
2022,05,18,20,07,14.50
2022,05,18,20,08,9.60
2022,05,18,20,09,14.50
2022,05,18,20,10,19.30
2022,05,18,20,11,19.30
2022,05,18,20,12,12.90
2022,05,18,20,13,16.10
2022,05,18,20,14,19.30
2022,05,18,20,15,16.10
2022,05,18,20,16,27.40
2022,05,18,20,17,19.30
2022,05,18,20,18,29.00
2022,05,18,20,19,22.50
2022,05,18,20,20,22.50
2022,05,18,20,21,24.20
2022,05,18,20,22,17.70
2022,05,18,20,23,12.90
2022,05,18,20,24,20.90
2022,05,18,20,25,11.30
2022,05,18,20,26,8.10
2022,05,18,20,27,9.60
2022,05,18,20,28,11.30
2022,05,18,20,29,12.90
2022,05,18,20,30,8.10
2022,05,18,20,31,14.50
2022,05,18,20,32,17.70
2022,05,18,20,33,25.70
2022,05,18,20,34,11.30
2022,05,18,20,35,11.30
2022,05,18,20,36,25.70
2022,05,18,20,37,32.20
2022,05,18,20,38,9.60
2022,05,18,20,39,12.90
2022,05,18,20,40,16.10
2022,05,18,20,41,17.70
2022,05,18,20,42,12.90
2022,05,18,20,43,14.50
2022,05,18,20,44,20.90
2022,05,18,20,45,6.40
2022,05,18,20,46,11.30
2022,05,18,20,47,20.90
2022,05,18,20,48,37.00
2022,05,18,20,49,16.10
2022,05,18,20,50,8.10
2022,05,18,20,51,24.20
2022,05,18,20,52,24.20
2022,05,18,20,53,12.90
2022,05,18,20,54,11.30
2022,05,18,20,55,8.10
2022,05,18,20,56,4.80
2022,05,18,20,57,3.20
2022,05,18,20,58,11.30
2022,05,18,20,59,17.70
2022,05,18,21,00,9.60
2022,05,18,21,01,16.10
2022,05,18,21,02,11.30
2022,05,18,21,03,8.10
2022,05,18,21,04,9.60
2022,05,18,21,05,14.50
2022,05,18,21,06,14.50
2022,05,18,21,07,16.10
2022,05,18,21,08,14.50
2022,05,18,21,09,12.90
2022,05,18,21,10,8.10
2022,05,18,21,11,6.40
2022,05,18,21,12,17.70
2022,05,18,21,13,11.30
2022,05,18,21,14,8.10
2022,05,18,21,15,6.40
2022,05,18,21,16,17.70
2022,05,18,21,17,12.90
2022,05,18,21,18,8.10
2022,05,18,21,19,17.70
2022,05,18,21,20,17.70
2022,05,18,21,21,16.10
2022,05,18,21,22,11.30
2022,05,18,21,23,11.30
2022,05,18,21,24,9.60
2022,05,18,21,25,11.30
2022,05,18,21,26,12.90
2022,05,18,21,27,22.50
2022,05,18,21,28,25.70
2022,05,18,21,29,14.50
2022,05,18,21,30,14.50
2022,05,18,21,31,20.90
2022,05,18,21,32,12.90
2022,05,18,21,33,14.50
2022,05,18,21,34,20.90
2022,05,18,21,35,12.90
2022,05,18,21,36,8.10
2022,05,18,21,37,8.10
2022,05,18,21,38,8.10
2022,05,18,21,39,17.70
2022,05,18,21,40,11.30
2022,05,18,21,41,12.90
2022,05,18,21,42,16.10
2022,05,18,21,43,11.30
2022,05,18,21,44,24.20
2022,05,18,21,45,12.90
2022,05,18,21,46,9.60
2022,05,18,21,47,16.10
2022,05,18,21,48,11.30
2022,05,18,21,49,20.90
2022,05,18,21,50,12.90
2022,05,18,21,51,14.50
2022,05,18,21,52,6.40
2022,05,18,21,53,4.80
2022,05,18,21,54,4.80
2022,05,18,21,55,8.10
2022,05,18,21,56,9.60
2022,05,18,21,57,6.40
2022,05,18,21,58,12.90
2022,05,18,21,59,20.90
2022,05,18,22,00,16.10
2022,05,18,22,01,11.30
2022,05,18,22,02,9.60
2022,05,18,22,03,11.30
2022,05,18,22,04,11.30
2022,05,18,22,05,8.10
2022,05,18,22,06,6.40
2022,05,18,22,07,3.20
2022,05,18,22,08,6.40
2022,05,18,22,09,17.70
2022,05,18,22,10,12.90
2022,05,18,22,11,9.60
2022,05,18,22,12,9.60
2022,05,18,22,13,9.60
2022,05,18,22,14,8.10
2022,05,18,22,15,6.40
2022,05,18,22,16,11.30
2022,05,18,22,17,16.10
2022,05,18,22,18,11.30
2022,05,18,22,19,4.80
2022,05,18,22,20,16.10
2022,05,18,22,21,11.30
2022,05,18,22,22,3.20
2022,05,18,22,23,4.80
2022,05,18,22,24,8.10
2022,05,18,22,25,8.10
2022,05,18,22,26,11.30
2022,05,18,22,27,4.80
2022,05,18,22,28,6.40
2022,05,18,22,29,9.60
2022,05,18,22,30,6.40
2022,05,18,22,31,8.10
2022,05,18,22,32,11.30
2022,05,18,22,33,6.40
2022,05,18,22,34,11.30
2022,05,18,22,35,8.10
2022,05,18,22,36,8.10
2022,05,18,22,37,11.30
2022,05,18,22,38,11.30
2022,05,18,22,39,8.10
2022,05,18,22,40,8.10
2022,05,18,22,41,9.60
2022,05,18,22,42,14.50
2022,05,18,22,43,9.60
2022,05,18,22,44,8.10
2022,05,18,22,45,8.10
2022,05,18,22,46,9.60
2022,05,18,22,47,6.40
2022,05,18,22,48,8.10
2022,05,18,22,49,9.60
2022,05,18,22,50,3.20
2022,05,18,22,51,1.60
2022,05,18,22,52,1.60
2022,05,18,22,53,6.40
2022,05,18,22,56,3.20
2022,05,18,22,57,3.20
2022,05,18,22,58,1.60
2022,05,18,22,59,8.10
2022,05,18,23,00,4.80
2022,05,18,23,01,6.40
2022,05,18,23,02,4.80
2022,05,18,23,03,4.80
2022,05,18,23,04,6.40
2022,05,18,23,05,8.10
2022,05,18,23,06,1.60
2022,05,18,23,07,3.20
2022,05,18,23,08,6.40
2022,05,18,23,09,16.10
2022,05,18,23,10,12.90
2022,05,18,23,11,14.50
2022,05,18,23,12,6.40
2022,05,18,23,13,6.40
2022,05,18,23,14,11.30
2022,05,18,23,15,11.30
2022,05,18,23,16,8.10
2022,05,18,23,17,4.80
2022,05,18,23,18,3.20
2022,05,18,23,19,4.80
2022,05,18,23,20,4.80
2022,05,18,23,21,24.20
2022,05,18,23,22,8.10
2022,05,18,23,23,4.80
2022,05,18,23,24,9.60
2022,05,18,23,25,11.30
2022,05,18,23,26,9.60
2022,05,18,23,27,14.50
2022,05,18,23,28,11.30
2022,05,18,23,29,4.80
2022,05,18,23,30,12.90
2022,05,18,23,31,8.10
2022,05,18,23,32,9.60
2022,05,18,23,33,9.60
2022,05,18,23,34,9.60
2022,05,18,23,35,6.40
2022,05,18,23,36,9.60
2022,05,18,23,37,8.10
2022,05,18,23,38,8.10
2022,05,18,23,39,4.80
2022,05,18,23,40,11.30
2022,05,18,23,41,6.40
2022,05,18,23,42,8.10
2022,05,18,23,43,4.80
2022,05,18,23,44,9.60
2022,05,18,23,45,9.60
2022,05,18,23,46,11.30
2022,05,18,23,47,11.30
2022,05,18,23,48,11.30
2022,05,18,23,49,12.90
2022,05,18,23,50,12.90
2022,05,18,23,51,6.40
2022,05,18,23,52,6.40
2022,05,18,23,53,9.60
2022,05,18,23,54,6.40
2022,05,18,23,55,11.30
2022,05,18,23,56,9.60
2022,05,18,23,57,8.10
2022,05,18,23,58,4.80
2022,05,18,23,59,8.10
